User: anonymous   Login
Location: Unspecified
(0.0000°N, 0.0000°E)
Time: 17:36:54
(UTC+00:00)
Language:

FORMOSAT 3E - Orbit

View from above orbital plane
View from above orbital plane
View from above satellite
View from above satellite

Ground track
Ground track

The orbit data is extracted from the following two-line orbital elements,

1 29051U 06011E   18170.92112821 +.00000066 +00000-0 +41622-4 0  9999
2 29051 072.0046 139.5003 0066595 105.0906 255.7611 14.28679299638136
Epoch (UTC): 19 June 2018 22:06:25
Eccentricity: 0.0066595
inclination: 72.0046°
perigee height: 748 km
apogee height: 844 km
right ascension of ascending node: 139.5003°
argument of perigee: 105.0906°
revolutions per day: 14.28679299
mean anomaly at epoch: 255.7611°
orbit number at epoch: 63813

The dashed part of the orbit path shows where the satellite is in the earth's shadow,  

DLR